DW2659 Weather Reports


Display with metric or nautical units.
time (UTC)temp
F
wind
direction
speed
MPH
gust
MPH
rain 1hr
in
rain 24hr
in
rain mn
in
humidity
%
barometer
mb
20260902024905 75 355 0.0 1.0 0.00 0.00 0.00 83 1018.2
20260902024402 76 355 1.0 1.0 0.00 0.00 0.00 82 1018.2
20260902023903 76 355 0.0 0.0 0.00 0.00 0.00 82 1018.2
20260902023404 76 355 0.0 0.0 0.00 0.00 0.00 82 1018.0
20260902022903 76 355 0.0 1.0 0.00 0.00 0.00 82 1018.0
20260902022402 76 355 0.0 1.0 0.00 0.00 0.00 81 1018.0
20260902021904 76 355 0.0 1.0 0.00 0.00 0.00 81 1018.0
20260902020903 76 355 1.0 1.0 0.00 0.00 0.00 81 1018.0
20260902020404 77 355 0.0 1.0 0.00 0.00 0.00 80 1018.0
20260902015903 77 355 0.0 0.0 0.00 0.00 0.00 80 1018.1
20260902015403 77 355 0.0 0.0 0.00 0.00 0.00 79 1018.1
20260902014904 77 355 0.0 0.0 0.00 0.00 0.00 79 1018.1
20260902014403 77 355 0.0 1.0 0.00 0.00 0.00 78 1018.0
20260902013903 78 355 0.0 0.0 0.00 0.00 0.00 77 1018.0
20260902013404 78 355 0.0 0.0 0.00 0.00 0.00 76 1018.0
20260902012403 78 355 0.0 0.0 0.00 0.00 0.00 75 1017.7
20260902011904 79 355 0.0 0.0 0.00 0.00 0.00 74 1017.7
20260902011402 79 355 0.0 0.0 0.00 0.00 0.00 73 1017.4
20260902010903 79 355 0.0 0.0 0.00 0.00 0.00 73 1017.4
20260902010404 79 355 0.0 0.0 0.00 0.00 0.00 73 1017.4
20260902005903 79 355 0.0 1.0 0.00 0.00 0.00 73 1017.4
20260902004905 80 355 0.0 0.0 0.00 0.00 0.00 71 1017.4
20260902004403 80 355 0.0 1.0 0.00 0.00 0.00 70 1017.3
20260902003903 80 355 1.0 1.0 0.00 0.00 0.00 70 1017.3
20260902003403 81 355 0.0 0.0 0.00 0.00 0.00 69 1017.3
20260902002903 81 355 0.0 0.0 0.00 0.00 0.00 69 1017.3
20260902002403 81 355 0.0 1.0 0.00 0.00 0.00 69 1017.3
20260902001905 82 355 0.0 1.0 0.00 0.00 0.00 68 1017.3
20260902001403 82 355 0.0 0.0 0.00 0.00 0.00 67 1017.2
20260902000406 83 355 1.0 1.0 0.00 0.00 0.00 66 1017.2
20260901235904 83 355 0.0 1.0 0.00 0.00 0.00 66 1017.4
20260901235403 84 355 0.0 0.0 0.00 0.00 0.00 64 1017.4
20260901234905 84 355 0.0 0.0 0.00 0.00 0.00 64 1017.4
20260901232903 86 355 0.0 0.0 0.00 0.00 0.00 61 1017.6
20260901232403 86 355 0.0 0.0 0.00 0.00 0.00 61 1017.6
20260901231403 87 355 0.0 0.0 0.00 0.00 0.00 61 1017.5
20260901230903 87 355 0.0 0.0 0.00 0.00 0.00 61 1017.5
20260901225903 88 355 0.0 0.0 0.00 0.00 0.00 60 1017.5
20260901225403 88 355 0.0 0.0 0.00 0.00 0.00 61 1017.5
20260901224904 88 355 0.0 1.0 0.00 0.00 0.00 60 1017.5
20260901224403 89 355 0.0 1.0 0.00 0.00 0.00 59 1017.4
20260901223404 90 355 0.0 1.0 0.00 0.00 0.00 57 1017.4
20260901221903 94 355 0.0 0.0 0.00 0.00 0.00 52 1017.4
20260901221404 95 355 0.0 0.0 0.00 0.00 0.00 53 1017.4
20260901220903 95 355 0.0 1.0 0.00 0.00 0.00 52 1017.4
20260901220403 95 355 0.0 0.0 0.00 0.00 0.00 52 1017.4
20260901215905 96 355 0.0 0.0 0.00 0.00 0.00 51 1017.4
20260901215403 96 355 0.0 0.0 0.00 0.00 0.00 50 1017.4
20260901214903 97 355 0.0 0.0 0.00 0.00 0.00 50 1017.4
20260901214404 96 355 0.0 0.0 0.00 0.00 0.00 50 1017.5
20260901213403 96 355 0.0 0.0 0.00 0.00 0.00 50 1017.5
20260901212903 97 355 0.0 1.0 0.00 0.00 0.00 50 1017.5
20260901212404 97 355 0.0 1.0 0.00 0.00 0.00 50 1017.5
20260901211903 97 355 0.0 2.0 0.00 0.00 0.00 48 1017.5
20260901210403 97 355 0.0 1.0 0.00 0.00 0.00 47 1017.5
20260901205903 98 355 0.0 1.0 0.00 0.00 0.00 48 1017.5
20260901205404 98 355 0.0 3.0 0.00 0.00 0.00 49 1017.7
20260901204403 98 328 1.0 2.0 0.00 0.00 0.00 47 1017.7
20260901203904 98 15 0.0 2.0 0.00 0.00 0.00 50 1017.7
20260901203403 97 15 0.0 2.0 0.00 0.00 0.00 50 1017.7
20260901202404 97 15 0.0 1.0 0.00 0.00 0.00 48 1017.9
20260901201904 97 15 0.0 1.0 0.00 0.00 0.00 50 1017.9
20260901201403 96 15 2.0 3.0 0.00 0.00 0.00 49 1018.0
20260901200903 96 9 1.0 3.0 0.00 0.00 0.00 46 1018.0
20260901195904 95 175 1.0 3.0 0.00 0.00 0.00 46 1018.1
20260901195403 95 355 0.0 2.0 0.00 0.00 0.00 49 1018.1
20260901194903 95 355 1.0 2.0 0.00 0.00 0.00 50 1018.1
20260901194405 95 355 0.0 2.0 0.00 0.00 0.00 48 1018.3
20260901193403 96 61 1.0 2.0 0.00 0.00 0.00 48 1018.4
20260901192904 96 42 1.0 3.0 0.00 0.00 0.00 47 1018.5
20260901192403 96 10 0.0 1.0 0.00 0.00 0.00 47 1018.5
20260901191904 95 13 1.0 3.0 0.00 0.00 0.00 48 1018.5
20260901190903 95 33 2.0 5.0 0.00 0.00 0.00 46 1018.7
20260901190403 95 43 1.0 3.0 0.00 0.00 0.00 45 1018.7
20260901185905 96 267 0.0 2.0 0.00 0.00 0.00 47 1018.9
20260901184904 95 355 1.0 3.0 0.00 0.00 0.00 44 1018.9
20260901184405 95 185 0.0 2.0 0.00 0.00 0.00 46 1019.0
20260901183903 94 32 2.0 3.0 0.00 0.00 0.00 48 1019.0
20260901183404 94 38 2.0 3.0 0.00 0.00 0.00 51 1018.9
20260901182404 94 57 1.0 3.0 0.00 0.04 0.00 51 1019.0
20260901181404 93 18 1.0 2.0 0.00 0.04 0.00 51 1019.2
20260901180904 93 74 2.0 5.0 0.00 0.04 0.00 53 1019.2
20260901180403 93 100 1.0 3.0 0.00 0.04 0.00 50 1019.2
20260901175405 94 248 3.0 5.0 0.00 0.04 0.00 48 1019.2
20260901174903 93 17 1.0 3.0 0.00 0.04 0.00 48 1019.2
20260901174404 93 73 1.0 3.0 0.00 0.04 0.00 49 1019.6
20260901173904 93 233 1.0 3.0 0.00 0.04 0.00 48 1019.6
20260901173403 94 327 1.0 3.0 0.00 0.04 0.00 49 1019.6
20260901172903 93 302 0.0 2.0 0.00 0.04 0.00 51 1019.7
20260901171904 93 225 2.0 3.0 0.00 0.04 0.00 52 1019.7
20260901171403 92 236 2.0 5.0 0.00 0.04 0.00 50 1020.0
20260901170904 92 34 0.0 2.0 0.00 0.04 0.00 54 1020.0
20260901170404 92 34 1.0 3.0 0.00 0.04 0.00 52 1020.0
20260901165404 91 82 2.0 3.0 0.00 0.04 0.00 55 1020.0
20260901164905 91 45 2.0 3.0 0.00 0.04 0.00 53 1020.1
20260901164404 91 66 0.0 3.0 0.00 0.04 0.00 55 1020.3
20260901163903 91 53 3.0 3.0 0.00 0.04 0.00 55 1020.3
20260901163405 91 20 1.0 2.0 0.00 0.04 0.00 58 1020.3
20260901162903 91 113 1.0 3.0 0.00 0.04 0.00 55 1021.0
20260901162403 91 92 1.0 2.0 0.00 0.04 0.00 57 1021.0
20260901161905 91 132 2.0 3.0 0.00 0.04 0.00 54 1021.0
20260901161404 91 109 2.0 5.0 0.00 0.04 0.00 56 1021.0
20260901160903 91 56 1.0 3.0 0.00 0.04 0.00 57 1021.0
20260901155903 90 44 1.0 3.0 0.00 0.04 0.00 58 1021.0
20260901154905 90 100 1.0 3.0 0.00 0.04 0.00 59 1021.0
20260901153904 90 240 0.0 2.0 0.00 0.04 0.00 57 1021.0
20260901152904 89 95 2.0 3.0 0.00 0.04 0.00 60 1020.9
20260901152404 89 68 1.0 2.0 0.00 0.04 0.00 60 1020.9
20260901151903 89 152 1.0 2.0 0.00 0.04 0.00 59 1020.9
20260901151404 89 159 1.0 3.0 0.00 0.04 0.00 58 1020.9
20260901150904 88 77 1.0 3.0 0.00 0.04 0.00 59 1020.9
20260901150403 88 185 0.0 0.0 0.00 0.04 0.00 59 1020.9
20260901145905 87 179 0.0 0.0 0.00 0.04 0.00 59 1020.9
20260901144405 86 160 0.0 0.0 0.00 0.04 0.00 63 1020.9
20260901143904 85 96 0.0 0.0 0.00 0.04 0.00 64 1020.9
20260901143403 85 96 0.0 0.0 0.00 0.04 0.00 65 1020.9
20260901142905 85 103 0.0 0.0 0.00 0.04 0.00 68 1020.9
20260901141904 84 135 0.0 0.0 0.00 0.04 0.00 70 1020.9
20260901141405 84 94 0.0 0.0 0.00 0.04 0.00 72 1020.9
20260901140403 83 94 0.0 0.0 0.00 0.04 0.00 72 1020.9
20260901135905 82 232 0.0 0.0 0.00 0.04 0.00 74 1020.9
20260901135404 82 232 0.0 0.0 0.00 0.04 0.00 73 1020.9
20260901134904 82 232 0.0 0.0 0.00 0.04 0.00 75 1020.9
20260901134405 81 232 0.0 0.0 0.00 0.04 0.00 78 1020.9
20260901133904 80 232 0.0 0.0 0.00 0.04 0.00 79 1020.9
20260901133404 79 232 0.0 0.0 0.00 0.04 0.00 80 1020.9
20260901132905 78 232 0.0 0.0 0.00 0.04 0.00 81 1020.9
20260901132403 77 232 0.0 0.0 0.00 0.04 0.00 83 1020.9
20260901131904 76 232 0.0 0.0 0.00 0.04 0.00 84 1020.9
20260901131405 75 232 0.0 0.0 0.00 0.04 0.00 87 1020.8
20260901130404 73 232 0.0 0.0 0.00 0.04 0.00 92 1020.8
20260901125905 73 232 0.0 0.0 0.00 0.04 0.00 93 1020.7
20260901125404 72 232 0.0 0.0 0.00 0.04 0.00 93 1020.7
20260901124904 72 232 0.0 0.0 0.00 0.04 0.00 94 1020.7
20260901124403 71 232 0.0 0.0 0.00 0.04 0.00 94 1020.7
20260901123905 71 232 0.0 0.0 0.00 0.04 0.00 94 1020.5
20260901122904 70 232 0.0 0.0 0.00 0.04 0.00 94 1020.5
20260901122405 70 232 0.0 0.0 0.00 0.04 0.00 94 1020.5
20260901121903 70 232 0.0 0.0 0.00 0.04 0.00 94 1020.5
20260901121403 69 232 0.0 0.0 0.00 0.04 0.00 94 1020.3
20260901120905 69 232 0.0 0.0 0.00 0.04 0.00 94 1020.3
20260901120403 69 232 0.0 0.0 0.00 0.04 0.00 93 1020.3
20260901115904 69 232 0.0 0.0 0.00 0.04 0.00 93 1020.3
20260901115405 69 232 0.0 0.0 0.00 0.04 0.00 93 1020.3
20260901114904 69 232 0.0 0.0 0.00 0.04 0.00 93 1020.3
20260901113906 69 232 0.0 0.0 0.00 0.04 0.00 93 1020.0
20260901112405 69 232 0.0 0.0 0.00 0.04 0.00 93 1019.8
20260901111904 69 232 0.0 0.0 0.00 0.04 0.00 93 1019.8
20260901111404 69 232 0.0 0.0 0.00 0.04 0.00 93 1019.6
20260901110905 69 232 0.0 0.0 0.00 0.04 0.00 93 1019.6
20260901105405 69 232 0.0 0.0 0.00 0.04 0.00 93 1019.5
20260901104904 69 232 0.0 0.0 0.00 0.04 0.00 93 1019.5
20260901104404 69 232 0.0 0.0 0.00 0.04 0.00 93 1019.5
20260901103904 69 232 0.0 0.0 0.00 0.04 0.00 93 1019.5
20260901103405 69 232 0.0 0.0 0.00 0.04 0.00 93 1019.5
20260901102904 69 232 0.0 0.0 0.00 0.04 0.00 93 1019.5
20260901102403 69 232 0.0 0.0 0.00 0.04 0.00 93 1019.5
20260901101906 69 232 0.0 0.0 0.00 0.04 0.00 93 1019.4
20260901100903 69 232 0.0 0.0 0.00 0.04 0.00 93 1019.4
20260901100403 69 232 0.0 0.0 0.00 0.04 0.00 93 1019.4
20260901095903 69 232 0.0 0.0 0.00 0.04 0.00 93 1019.4
20260901094903 69 232 0.0 0.0 0.00 0.04 0.00 93 1019.4
20260901094403 69 232 0.0 0.0 0.00 0.04 0.00 93 1018.8
20260901093902 69 232 0.0 0.0 0.00 0.04 0.00 92 1018.8
20260901093402 69 232 0.0 0.0 0.00 0.04 0.00 92 1018.8
20260901092904 70 232 0.0 0.0 0.00 0.04 0.00 92 1018.8
20260901092402 70 232 0.0 0.0 0.00 0.04 0.00 92 1018.8
20260901091902 70 232 0.0 0.0 0.00 0.04 0.00 92 1018.8
20260901091404 70 232 0.0 0.0 0.00 0.04 0.00 92 1018.8
20260901090902 70 232 0.0 0.0 0.00 0.04 0.00 92 1018.8
20260901090403 70 232 0.0 0.0 0.00 0.04 0.00 92 1018.8
20260901085403 70 232 0.0 0.0 0.00 0.04 0.00 92 1018.8
20260901084404 70 232 0.0 0.0 0.00 0.04 0.00 92 1018.6
20260901083902 70 232 0.0 0.0 0.00 0.04 0.00 92 1018.6
20260901083402 70 232 0.0 0.0 0.00 0.04 0.00 92 1018.6
20260901082402 70 232 0.0 0.0 0.00 0.04 0.00 92 1018.6
20260901081902 70 232 0.0 0.0 0.00 0.04 0.00 92 1018.6
20260901080903 70 232 0.0 0.0 0.00 0.04 0.00 91 1018.7
20260901080402 70 232 0.0 0.0 0.00 0.04 0.00 92 1018.7
20260901075904 70 232 0.0 0.0 0.00 0.04 0.00 91 1018.7
20260901075402 70 232 0.0 0.0 0.00 0.04 0.00 91 1018.7
20260901073902 70 232 0.0 0.0 0.00 0.04 0.00 91 1018.7
20260901073402 70 232 0.0 0.0 0.00 0.04 0.00 91 1018.6
20260901072904 71 232 0.0 0.0 0.00 0.04 0.00 91 1018.7
20260901072402 71 232 0.0 0.0 0.00 0.04 0.00 91 1018.7
20260901071903 71 232 0.0 0.0 0.00 0.04 0.00 91 1018.7
20260901071404 71 232 0.0 0.0 0.00 0.04 0.00 91 1019.0
20260901070903 71 232 0.0 0.0 0.00 0.04 0.00 91 1019.0
20260901070402 71 232 0.0 0.0 0.00 0.04 0.00 91 1019.0
20260901065903 71 232 0.0 0.0 0.00 0.04 0.00 91 1019.0
20260901065403 71 232 0.0 0.0 0.00 0.04 0.00 91 1019.0
20260901064904 71 232 0.0 0.0 0.00 0.04 0.00 91 1019.0
20260901064403 71 232 0.0 0.0 0.00 0.04 0.00 91 1019.1
20260901063903 71 232 0.0 0.0 0.00 0.04 0.00 90 1019.1
20260901063402 71 232 0.0 0.0 0.00 0.04 0.00 90 1019.0
20260901061902 71 232 0.0 0.0 0.00 0.04 0.00 90 1019.2
20260901061404 71 232 0.0 0.0 0.00 0.04 0.00 90 1019.2
20260901060902 71 232 0.0 0.0 0.00 0.04 0.00 90 1019.2
20260901060402 71 232 0.0 0.0 0.00 0.04 0.00 90 1019.2
20260901055904 71 232 0.0 0.0 0.00 0.04 0.00 90 1019.2
20260901055403 71 232 0.0 0.0 0.00 0.04 0.00 90 1019.2
20260901054903 71 232 0.0 0.0 0.00 0.04 0.00 90 1019.2
20260901054403 71 232 0.0 0.0 0.00 0.04 0.00 89 1019.2
20260901052904 72 232 0.0 0.0 0.00 0.04 0.00 89 1019.2
20260901052403 72 232 0.0 0.0 0.00 0.04 0.00 89 1019.3
20260901051903 72 232 0.0 0.0 0.00 0.04 0.00 89 1019.3
20260901051404 72 232 0.0 0.0 0.00 0.04 0.00 89 1019.2
20260901045904 72 232 0.0 0.0 0.00 0.04 0.00 88 1019.1
20260901045402 72 232 0.0 0.0 0.00 0.04 0.00 88 1019.1
20260901044404 72 232 0.0 0.0 0.00 0.04 0.00 87 1019.0
20260901043903 72 232 0.0 0.0 0.00 0.04 0.00 87 1019.0
20260901043402 72 232 0.0 0.0 0.00 0.04 0.00 87 1019.0
20260901042403 72 232 0.0 0.0 0.00 0.04 0.00 87 1019.0
20260901041902 73 232 0.0 0.0 0.00 0.04 0.00 86 1019.0
20260901041404 73 232 0.0 0.0 0.00 0.04 0.00 86 1019.0
20260901040903 73 232 0.0 0.0 0.00 0.04 0.00 86 1019.0
20260901040402 73 232 0.0 0.0 0.00 0.04 0.00 86 1019.0
20260901035904 73 232 0.0 0.0 0.00 0.04 0.04 86 1018.8
20260901035402 73 232 0.0 0.0 0.00 0.04 0.04 85 1018.8
20260901034903 73 232 0.0 0.0 0.00 0.04 0.04 85 1018.8
20260901034404 73 232 0.0 0.0 0.00 0.04 0.04 86 1018.8
20260901033902 73 232 0.0 0.0 0.00 0.04 0.04 85 1018.9
20260901033403 73 232 0.0 0.0 0.00 0.04 0.04 85 1018.9
20260901032904 73 232 0.0 0.0 0.00 0.04 0.04 85 1019.0
20260901032402 73 232 0.0 0.0 0.00 0.04 0.04 84 1019.0
20260901031902 73 232 0.0 0.0 0.00 0.04 0.04 84 1019.0
20260901031403 74 232 0.0 0.0 0.00 0.04 0.04 84 1019.1
20260901030903 74 232 0.0 0.0 0.00 0.04 0.04 84 1019.1
20260901025904 74 232 0.0 0.0 0.00 0.04 0.04 84 1019.2
20260901025403 74 232 0.0 0.0 0.00 0.04 0.04 83 1019.2